www.cux-wetter.de
Wetterdaten: Freitag, 23.11.2007
Datum Zeit Temp. A. Feuchte A. Luftdruck Regen Wind Richtung Richtung Sonnenschein Solar Taupunkt Windchill Windben
23.11.2007 00:03 7,2 C 96 % 1003,5 hPa 0,0 l/m 23,9 km/h (4 Bft) SW 235 0 min 0 W/m 6,6 C -1,6 C 23,9 km/h (4 Bft)
23.11.2007 00:08 7,3 C 96 % 1003,5 hPa 0,0 l/m 22,3 km/h (4 Bft) W-SW 250 0 min 0 W/m 6,7 C -1,0 C 22,3 km/h (4 Bft)
23.11.2007 00:13 7,4 C 96 % 1003,5 hPa 0,0 l/m 23,0 km/h (4 Bft) W-SW 250 0 min 0 W/m 6,8 C -1,1 C 23,0 km/h (4 Bft)
23.11.2007 00:17 7,6 C 96 % 1003,5 hPa 0,0 l/m 22,0 km/h (4 Bft) SW 235 0 min 0 W/m 7,0 C -0,5 C 22,0 km/h (4 Bft)
23.11.2007 00:23 7,8 C 96 % 1003,5 hPa 0,0 l/m 23,6 km/h (4 Bft) W-SW 245 0 min 0 W/m 7,2 C -0,7 C 23,6 km/h (4 Bft)
23.11.2007 00:28 7,8 C 96 % 1003,5 hPa 0,0 l/m 22,2 km/h (4 Bft) W-SW 255 0 min 0 W/m 7,2 C -0,3 C 22,2 km/h (4 Bft)
23.11.2007 00:33 8,0 C 95 % 1003,5 hPa 0,0 l/m 24,1 km/h (4 Bft) W-SW 250 0 min 0 W/m 7,2 C -0,6 C 24,1 km/h (4 Bft)
23.11.2007 00:38 8,1 C 95 % 1003,5 hPa 0,0 l/m 29,1 km/h (5 Bft) W-SW 250 0 min 0 W/m 7,3 C -1,8 C 29,1 km/h (5 Bft)
23.11.2007 00:43 8,2 C 94 % 1003,5 hPa 0,0 l/m 33,1 km/h (5 Bft) W-SW 250 0 min 0 W/m 7,3 C -2,5 C 33,1 km/h (5 Bft)
23.11.2007 00:48 8,3 C 94 % 1003,5 hPa 0,0 l/m 23,3 km/h (4 Bft) W-SW 255 0 min 0 W/m 7,4 C 0,0 C 23,3 km/h (4 Bft)
23.11.2007 00:53 8,4 C 94 % 1003,5 hPa 0,0 l/m 23,6 km/h (4 Bft) W-SW 250 0 min 0 W/m 7,5 C 0,1 C 23,6 km/h (4 Bft)
23.11.2007 00:58 8,5 C 94 % 1003,5 hPa 0,0 l/m 27,6 km/h (5 Bft) W-SW 255 0 min 0 W/m 7,6 C -0,9 C 27,6 km/h (5 Bft)
23.11.2007 01:03 8,5 C 94 % 1003,5 hPa 0,0 l/m 29,4 km/h (5 Bft) W-SW 250 0 min 0 W/m 7,6 C -1,3 C 29,4 km/h (5 Bft)
23.11.2007 01:08 8,5 C 92 % 1003,5 hPa 0,0 l/m 27,9 km/h (5 Bft) W-SW 250 0 min 0 W/m 7,3 C -1,0 C 27,9 km/h (5 Bft)
23.11.2007 01:13 8,5 C 92 % 1003,5 hPa 0,0 l/m 30,1 km/h (5 Bft) W-SW 250 0 min 0 W/m 7,3 C -1,5 C 30,1 km/h (5 Bft)
23.11.2007 01:18 8,5 C 92 % 1003,5 hPa 0,0 l/m 26,0 km/h (4 Bft) W-SW 255 0 min 0 W/m 7,3 C -0,5 C 26,0 km/h (4 Bft)
23.11.2007 01:23 8,5 C 92 % 1003,5 hPa 0,0 l/m 28,3 km/h (5 Bft) W-SW 250 0 min 0 W/m 7,3 C -1,1 C 28,3 km/h (5 Bft)
23.11.2007 01:28 8,5 C 92 % 1003,5 hPa 0,0 l/m 28,6 km/h (5 Bft) W-SW 250 0 min 0 W/m 7,3 C -1,1 C 28,6 km/h (5 Bft)
23.11.2007 01:33 8,4 C 92 % 1003,5 hPa 0,0 l/m 23,8 km/h (4 Bft) W-SW 250 0 min 0 W/m 7,2 C 0,0 C 23,8 km/h (4 Bft)
23.11.2007 01:38 8,4 C 92 % 1003,5 hPa 0,0 l/m 26,6 km/h (4 Bft) W 260 0 min 0 W/m 7,2 C -0,8 C 26,6 km/h (4 Bft)
23.11.2007 01:43 8,4 C 92 % 1003,5 hPa 0,0 l/m 26,6 km/h (4 Bft) W 260 0 min 0 W/m 7,2 C -0,8 C 26,6 km/h (4 Bft)
23.11.2007 01:48 8,4 C 92 % 1003,5 hPa 0,0 l/m 27,3 km/h (5 Bft) W-SW 255 0 min 0 W/m 7,2 C -0,9 C 27,3 km/h (5 Bft)
23.11.2007 01:53 8,4 C 92 % 1003,5 hPa 0,0 l/m 25,8 km/h (4 Bft) W-SW 250 0 min 0 W/m 7,2 C -0,6 C 25,8 km/h (4 Bft)
23.11.2007 01:58 8,4 C 92 % 1003,5 hPa 0,0 l/m 26,1 km/h (4 Bft) W-SW 250 0 min 0 W/m 7,2 C -0,6 C 26,1 km/h (4 Bft)
23.11.2007 02:03 8,4 C 92 % 1003,5 hPa 0,0 l/m 22,1 km/h (4 Bft) W-SW 250 0 min 0 W/m 7,2 C 0,5 C 22,1 km/h (4 Bft)
23.11.2007 02:08 8,4 C 93 % 1003,5 hPa 0,0 l/m 28,5 km/h (5 Bft) W-SW 255 0 min 0 W/m 7,3 C -1,2 C 28,5 km/h (5 Bft)
23.11.2007 02:13 8,4 C 93 % 1003,5 hPa 0,0 l/m 26,1 km/h (4 Bft) W 260 0 min 0 W/m 7,3 C -0,6 C 26,1 km/h (4 Bft)
23.11.2007 02:18 8,4 C 93 % 1003,5 hPa 0,0 l/m 22,8 km/h (4 Bft) W-SW 250 0 min 0 W/m 7,3 C 0,3 C 22,8 km/h (4 Bft)
23.11.2007 02:23 8,4 C 93 % 1003,5 hPa 0,0 l/m 29,8 km/h (5 Bft) W-SW 255 0 min 0 W/m 7,3 C -1,5 C 29,8 km/h (5 Bft)
23.11.2007 02:28 8,4 C 93 % 1003,5 hPa 0,0 l/m 28,6 km/h (5 Bft) W-SW 255 0 min 0 W/m 7,3 C -1,3 C 28,6 km/h (5 Bft)
23.11.2007 02:33 8,4 C 93 % 1003,5 hPa 0,0 l/m 27,9 km/h (5 Bft) W-SW 250 0 min 0 W/m 7,3 C -1,1 C 27,9 km/h (5 Bft)
23.11.2007 02:38 8,3 C 93 % 1003,5 hPa 0,0 l/m 24,6 km/h (4 Bft) W-SW 250 0 min 0 W/m 7,2 C -0,4 C 24,6 km/h (4 Bft)
23.11.2007 02:43 8,3 C 93 % 1003,5 hPa 0,0 l/m 22,0 km/h (4 Bft) W-SW 250 0 min 0 W/m 7,2 C 0,4 C 22,0 km/h (4 Bft)
23.11.2007 02:48 8,2 C 93 % 1003,5 hPa 0,0 l/m 20,0 km/h (4 Bft) W-SW 250 0 min 0 W/m 7,1 C 1,0 C 20,0 km/h (4 Bft)
23.11.2007 02:53 8,2 C 93 % 1003,5 hPa 0,0 l/m 24,1 km/h (4 Bft) W-SW 255 0 min 0 W/m 7,1 C -0,3 C 24,1 km/h (4 Bft)
23.11.2007 02:58 8,1 C 93 % 1003,5 hPa 0,0 l/m 23,7 km/h (4 Bft) W-SW 250 0 min 0 W/m 7,0 C -0,4 C 23,7 km/h (4 Bft)
23.11.2007 03:03 8,1 C 93 % 1003,5 hPa 0,0 l/m 23,7 km/h (4 Bft) W-SW 250 0 min 0 W/m 7,0 C -0,4 C 23,7 km/h (4 Bft)
23.11.2007 03:08 8,1 C 93 % 1003,5 hPa 0,0 l/m 24,1 km/h (4 Bft) W-SW 255 0 min 0 W/m 7,0 C -0,5 C 24,1 km/h (4 Bft)
23.11.2007 03:13 8,0 C 93 % 1003,5 hPa 0,0 l/m 22,0 km/h (4 Bft) W-SW 255 0 min 0 W/m 6,9 C 0,0 C 22,0 km/h (4 Bft)
23.11.2007 03:18 8,0 C 93 % 1003,5 hPa 0,0 l/m 24,2 km/h (4 Bft) W-SW 250 0 min 0 W/m 6,9 C -0,6 C 24,2 km/h (4 Bft)
23.11.2007 03:23 8,0 C 93 % 1003,5 hPa 0,0 l/m 25,1 km/h (4 Bft) W-SW 255 0 min 0 W/m 6,9 C -0,9 C 25,1 km/h (4 Bft)
23.11.2007 03:28 7,9 C 94 % 1003,5 hPa 0,0 l/m 22,2 km/h (4 Bft) W-SW 255 0 min 0 W/m 7,0 C -0,2 C 22,2 km/h (4 Bft)
23.11.2007 03:33 7,8 C 94 % 1003,5 hPa 0,0 l/m 22,0 km/h (4 Bft) W-SW 255 0 min 0 W/m 6,9 C -0,2 C 22,0 km/h (4 Bft)
23.11.2007 03:38 7,8 C 94 % 1003,5 hPa 0,0 l/m 22,6 km/h (4 Bft) W-SW 255 0 min 0 W/m 6,9 C -0,4 C 22,6 km/h (4 Bft)
23.11.2007 03:43 7,7 C 94 % 1003,5 hPa 0,0 l/m 26,4 km/h (4 Bft) W-SW 255 0 min 0 W/m 6,8 C -1,7 C 26,4 km/h (4 Bft)
23.11.2007 03:48 7,6 C 94 % 1003,5 hPa 0,0 l/m 24,0 km/h (4 Bft) W-SW 255 0 min 0 W/m 6,7 C -1,1 C 24,0 km/h (4 Bft)
23.11.2007 03:53 7,6 C 94 % 1003,5 hPa 0,0 l/m 23,5 km/h (4 Bft) W-SW 255 0 min 0 W/m 6,7 C -1,0 C 23,5 km/h (4 Bft)
23.11.2007 03:58 7,5 C 95 % 1003,5 hPa 0,0 l/m 22,3 km/h (4 Bft) W 260 0 min 0 W/m 6,8 C -0,7 C 22,3 km/h (4 Bft)
23.11.2007 04:03 7,4 C 95 % 1004,5 hPa 0,0 l/m 21,4 km/h (4 Bft) W-SW 255 0 min 0 W/m 6,7 C -0,6 C 21,4 km/h (4 Bft)
23.11.2007 04:08 7,4 C 95 % 1004,5 hPa 0,0 l/m 21,8 km/h (4 Bft) W-SW 250 0 min 0 W/m 6,7 C -0,7 C 21,8 km/h (4 Bft)
23.11.2007 04:13 7,4 C 95 % 1003,5 hPa 0,0 l/m 20,5 km/h (4 Bft) W-SW 250 0 min 0 W/m 6,7 C -0,3 C 20,5 km/h (4 Bft)
23.11.2007 04:18 7,2 C 95 % 1003,5 hPa 0,0 l/m 22,5 km/h (4 Bft) W 260 0 min 0 W/m 6,5 C -1,2 C 22,5 km/h (4 Bft)
23.11.2007 04:23 7,2 C 95 % 1003,5 hPa 0,0 l/m 22,1 km/h (4 Bft) W-SW 255 0 min 0 W/m 6,5 C -1,1 C 22,1 km/h (4 Bft)
23.11.2007 04:28 7,2 C 95 % 1004,5 hPa 0,0 l/m 23,6 km/h (4 Bft) W-SW 245 0 min 0 W/m 6,5 C -1,5 C 23,6 km/h (4 Bft)
23.11.2007 04:33 7,1 C 95 % 1003,5 hPa 0,0 l/m 20,3 km/h (4 Bft) W-SW 250 0 min 0 W/m 6,4 C -0,6 C 20,3 km/h (4 Bft)
23.11.2007 04:38 7,0 C 95 % 1003,5 hPa 0,0 l/m 18,9 km/h (3 Bft) W-SW 250 0 min 0 W/m 6,3 C -0,2 C 18,9 km/h (3 Bft)
23.11.2007 04:43 6,9 C 95 % 1004,5 hPa 0,0 l/m 16,6 km/h (3 Bft) W-SW 250 0 min 0 W/m 6,2 C 0,6 C 16,6 km/h (3 Bft)
23.11.2007 04:48 6,9 C 96 % 1004,5 hPa 0,0 l/m 18,9 km/h (3 Bft) W-SW 250 0 min 0 W/m 6,3 C -0,3 C 18,9 km/h (3 Bft)
23.11.2007 04:53 7,0 C 96 % 1004,5 hPa 0,0 l/m 19,6 km/h (3 Bft) W-SW 250 0 min 0 W/m 6,4 C -0,4 C 19,6 km/h (3 Bft)
23.11.2007 04:58 7,0 C 96 % 1004,5 hPa 0,0 l/m 20,1 km/h (4 Bft) W-SW 250 0 min 0 W/m 6,4 C -0,6 C 20,1 km/h (4 Bft)
23.11.2007 05:03 7,1 C 96 % 1004,5 hPa 0,0 l/m 18,2 km/h (3 Bft) W-SW 245 0 min 0 W/m 6,5 C 0,2 C 18,2 km/h (3 Bft)
23.11.2007 05:08 7,2 C 96 % 1004,5 hPa 0,0 l/m 18,5 km/h (3 Bft) W-SW 250 0 min 0 W/m 6,6 C 0,2 C 18,5 km/h (3 Bft)
23.11.2007 05:13 7,2 C 96 % 1004,5 hPa 0,0 l/m 23,9 km/h (4 Bft) W-SW 255 0 min 0 W/m 6,6 C -1,6 C 23,9 km/h (4 Bft)
23.11.2007 05:18 7,2 C 96 % 1004,5 hPa 0,0 l/m 21,9 km/h (4 Bft) W 260 0 min 0 W/m 6,6 C -1,0 C 21,9 km/h (4 Bft)
23.11.2007 05:23 7,2 C 96 % 1004,5 hPa 0,0 l/m 22,5 km/h (4 Bft) W-SW 255 0 min 0 W/m 6,6 C -1,2 C 22,5 km/h (4 Bft)
23.11.2007 05:28 7,3 C 96 % 1004,5 hPa 0,0 l/m 19,5 km/h (3 Bft) W-SW 255 0 min 0 W/m 6,7 C -0,0 C 19,5 km/h (3 Bft)
23.11.2007 05:33 7,2 C 96 % 1004,5 hPa 0,0 l/m 22,6 km/h (4 Bft) W-SW 255 0 min 0 W/m 6,6 C -1,2 C 22,6 km/h (4 Bft)
23.11.2007 05:38 7,2 C 96 % 1004,5 hPa 0,0 l/m 23,8 km/h (4 Bft) W-SW 250 0 min 0 W/m 6,6 C -1,6 C 23,8 km/h (4 Bft)
23.11.2007 05:43 7,2 C 96 % 1004,5 hPa 0,0 l/m 29,5 km/h (5 Bft) W-SW 255 0 min 0 W/m 6,6 C -3,2 C 29,5 km/h (5 Bft)
23.11.2007 05:48 7,2 C 95 % 1004,5 hPa 0,0 l/m 25,5 km/h (4 Bft) W-SW 250 0 min 0 W/m 6,5 C -2,1 C 25,5 km/h (4 Bft)
23.11.2007 05:53 7,3 C 95 % 1004,5 hPa 0,0 l/m 24,3 km/h (4 Bft) W-SW 250 0 min 0 W/m 6,6 C -1,6 C 24,3 km/h (4 Bft)
23.11.2007 05:58 7,3 C 95 % 1004,5 hPa 0,0 l/m 25,6 km/h (4 Bft) W-SW 250 0 min 0 W/m 6,6 C -2,0 C 25,6 km/h (4 Bft)
23.11.2007 06:03 7,3 C 95 % 1004,5 hPa 0,0 l/m 23,6 km/h (4 Bft) W-SW 255 0 min 0 W/m 6,6 C -1,4 C 23,6 km/h (4 Bft)
23.11.2007 06:08 7,3 C 95 % 1004,5 hPa 0,0 l/m 28,6 km/h (5 Bft) W-SW 250 0 min 0 W/m 6,6 C -2,8 C 28,6 km/h (5 Bft)
23.11.2007 06:13 7,3 C 95 % 1004,5 hPa 0,0 l/m 22,8 km/h (4 Bft) W-SW 255 0 min 0 W/m 6,6 C -1,2 C 22,8 km/h (4 Bft)
23.11.2007 06:18 7,4 C 95 % 1004,5 hPa 0,0 l/m 22,4 km/h (4 Bft) W-SW 250 0 min 0 W/m 6,7 C -0,9 C 22,4 km/h (4 Bft)
23.11.2007 06:23 7,4 C 95 % 1004,5 hPa 0,0 l/m 23,5 km/h (4 Bft) W-SW 255 0 min 0 W/m 6,7 C -1,2 C 23,5 km/h (4 Bft)
23.11.2007 06:27 7,4 C 95 % 1004,5 hPa 0,0 l/m 29,5 km/h (5 Bft) W 260 0 min 0 W/m 6,7 C -2,9 C 29,5 km/h (5 Bft)
23.11.2007 06:33 7,4 C 95 % 1004,5 hPa 0,0 l/m 27,2 km/h (5 Bft) W-SW 255 0 min 0 W/m 6,7 C -2,3 C 27,2 km/h (5 Bft)
23.11.2007 06:38 7,5 C 95 % 1004,5 hPa 0,0 l/m 21,6 km/h (4 Bft) W 260 0 min 0 W/m 6,8 C -0,5 C 21,6 km/h (4 Bft)
23.11.2007 06:43 7,4 C 95 % 1004,5 hPa 0,0 l/m 29,5 km/h (5 Bft) W-SW 255 0 min 0 W/m 6,7 C -2,9 C 29,5 km/h (5 Bft)
23.11.2007 06:48 7,5 C 95 % 1004,5 hPa 0,0 l/m 23,5 km/h (4 Bft) W 260 0 min 0 W/m 6,8 C -1,1 C 23,5 km/h (4 Bft)
23.11.2007 06:53 7,5 C 95 % 1005,5 hPa 0,0 l/m 23,5 km/h (4 Bft) W-SW 255 0 min 0 W/m 6,8 C -1,1 C 23,5 km/h (4 Bft)
23.11.2007 06:58 7,5 C 95 % 1005,5 hPa 0,0 l/m 25,6 km/h (4 Bft) W 260 0 min 0 W/m 6,8 C -1,7 C 25,6 km/h (4 Bft)
23.11.2007 07:03 7,5 C 95 % 1005,5 hPa 0,0 l/m 25,1 km/h (4 Bft) W 260 0 min 0 W/m 6,8 C -1,6 C 25,1 km/h (4 Bft)
23.11.2007 07:08 7,5 C 95 % 1005,5 hPa 0,0 l/m 23,3 km/h (4 Bft) W 260 0 min 0 W/m 6,8 C -1,0 C 23,3 km/h (4 Bft)
23.11.2007 07:13 7,4 C 95 % 1005,5 hPa 0,0 l/m 18,6 km/h (3 Bft) W 260 0 min 0 W/m 6,7 C 0,5 C 18,6 km/h (3 Bft)
23.11.2007 07:18 7,3 C 95 % 1005,5 hPa 0,0 l/m 19,9 km/h (4 Bft) W 260 0 min 0 W/m 6,6 C -0,2 C 19,9 km/h (4 Bft)
23.11.2007 07:23 7,3 C 95 % 1005,5 hPa 0,0 l/m 14,4 km/h (3 Bft) W 265 0 min 0 W/m 6,6 C 2,1 C 14,4 km/h (3 Bft)
23.11.2007 07:28 7,2 C 95 % 1005,5 hPa 0,0 l/m 20,4 km/h (4 Bft) W 270 0 min 0 W/m 6,5 C -0,5 C 20,4 km/h (4 Bft)
23.11.2007 07:33 7,2 C 96 % 1005,5 hPa 0,0 l/m 16,8 km/h (3 Bft) W-NW 285 0 min 0 W/m 6,6 C 0,9 C 16,8 km/h (3 Bft)
23.11.2007 07:38 7,2 C 96 % 1005,5 hPa 0,0 l/m 24,4 km/h (4 Bft) W-NW 285 0 min 0 W/m 6,6 C -1,8 C 24,4 km/h (4 Bft)
23.11.2007 07:43 7,2 C 96 % 1005,5 hPa 0,0 l/m 17,1 km/h (3 Bft) NW 305 0 min 0 W/m 6,6 C 0,8 C 17,1 km/h (3 Bft)
23.11.2007 07:48 7,2 C 96 % 1005,5 hPa 0,0 l/m 8,5 km/h (2 Bft) N-NW 345 0 min 0 W/m 6,6 C 5,5 C 8,5 km/h (2 Bft)
23.11.2007 07:53 7,3 C 96 % 1005,5 hPa 0,0 l/m 9,1 km/h (2 Bft) NW 325 0 min 0 W/m 6,7 C 5,2 C 9,1 km/h (2 Bft)
23.11.2007 07:58 7,4 C 96 % 1005,5 hPa 0,0 l/m 8,1 km/h (2 Bft) NW 315 0 min 0 W/m 6,8 C 6,0 C 8,1 km/h (2 Bft)
23.11.2007 08:03 7,4 C 96 % 1006,5 hPa 0,0 l/m 7,6 km/h (2 Bft) N-NW 330 0 min 0 W/m 6,8 C 6,4 C 7,6 km/h (2 Bft)
23.11.2007 08:08 7,4 C 96 % 1006,5 hPa 0,0 l/m 7,6 km/h (2 Bft) N-NW 330 0 min 0 W/m 6,8 C 6,4 C 7,6 km/h (2 Bft)
23.11.2007 08:13 7,5 C 95 % 1006,5 hPa 0,0 l/m 12,6 km/h (3 Bft) N 360 0 min 0 W/m 6,8 C 3,3 C 12,6 km/h (3 Bft)
23.11.2007 08:18 7,5 C 95 % 1006,5 hPa 0,0 l/m 14,1 km/h (3 Bft) N 360 0 min 0 W/m 6,8 C 2,5 C 14,1 km/h (3 Bft)
23.11.2007 08:23 7,5 C 95 % 1006,5 hPa 0,0 l/m 12,5 km/h (2 Bft) N 350 0 min 0 W/m 6,8 C 3,4 C 12,5 km/h (2 Bft)
23.11.2007 08:28 7,6 C 95 % 1006,5 hPa 0,0 l/m 11,6 km/h (2 Bft) N 350 0 min 0 W/m 6,9 C 4,0 C 11,6 km/h (2 Bft)
23.11.2007 08:33 7,6 C 95 % 1006,5 hPa 0,0 l/m 9,1 km/h (2 Bft) N 350 0 min 0 W/m 6,9 C 5,5 C 9,1 km/h (2 Bft)
23.11.2007 08:38 7,6 C 94 % 1007,5 hPa 0,0 l/m 11,9 km/h (2 Bft) N 360 0 min 0 W/m 6,7 C 3,8 C 11,9 km/h (2 Bft)
23.11.2007 08:43 7,5 C 94 % 1007,5 hPa 0,0 l/m 12,9 km/h (3 Bft) N 360 0 min 0 W/m 6,6 C 3,1 C 12,9 km/h (3 Bft)
23.11.2007 08:48 7,6 C 94 % 1007,5 hPa 0,0 l/m 10,4 km/h (2 Bft) N 355 0 min 0 W/m 6,7 C 4,7 C 10,4 km/h (2 Bft)
23.11.2007 08:53 7,6 C 93 % 1007,5 hPa 0,0 l/m 14,7 km/h (3 Bft) N 355 0 min 0 W/m 6,5 C 2,4 C 14,7 km/h (3 Bft)
23.11.2007 08:58 7,7 C 93 % 1007,5 hPa 0,0 l/m 13,7 km/h (3 Bft) N 360 0 min 0 W/m 6,6 C 3,0 C 13,7 km/h (3 Bft)
23.11.2007 09:03 7,6 C 92 % 1007,5 hPa 0,0 l/m 15,0 km/h (3 Bft) N 360 0 min 0 W/m 6,4 C 2,2 C 15,0 km/h (3 Bft)
23.11.2007 09:08 7,7 C 93 % 1007,5 hPa 0,0 l/m 12,3 km/h (2 Bft) N 360 0 min 0 W/m 6,6 C 3,7 C 12,3 km/h (2 Bft)
23.11.2007 09:13 7,8 C 92 % 1007,5 hPa 0,0 l/m 13,5 km/h (3 Bft) N 360 0 min 0 W/m 6,6 C 3,2 C 13,5 km/h (3 Bft)
23.11.2007 09:18 7,8 C 92 % 1007,5 hPa 0,0 l/m 14,5 km/h (3 Bft) N 5 0 min 0 W/m 6,6 C 2,7 C 14,5 km/h (3 Bft)
23.11.2007 09:23 7,8 C 91 % 1008,5 hPa 0,0 l/m 16,3 km/h (3 Bft) N 5 0 min 0 W/m 6,4 C 1,9 C 16,3 km/h (3 Bft)
23.11.2007 09:28 7,8 C 91 % 1008,5 hPa 0,0 l/m 9,9 km/h (2 Bft) N 5 0 min 0 W/m 6,4 C 5,2 C 9,9 km/h (2 Bft)
23.11.2007 09:33 7,8 C 91 % 1008,5 hPa 0,0 l/m 11,6 km/h (2 Bft) N-NO 15 0 min 0 W/m 6,4 C 4,2 C 11,6 km/h (2 Bft)
23.11.2007 09:38 7,8 C 90 % 1008,5 hPa 0,0 l/m 14,8 km/h (3 Bft) N 10 0 min 0 W/m 6,3 C 2,6 C 14,8 km/h (3 Bft)
23.11.2007 09:43 7,7 C 90 % 1008,5 hPa 0,0 l/m 14,2 km/h (3 Bft) N 360 0 min 0 W/m 6,2 C 2,7 C 14,2 km/h (3 Bft)
23.11.2007 09:48 7,7 C 89 % 1008,5 hPa 0,0 l/m 15,5 km/h (3 Bft) N-NO 20 0 min 0 W/m 6,0 C 2,1 C 15,5 km/h (3 Bft)
23.11.2007 09:53 7,7 C 89 % 1008,5 hPa 0,0 l/m 14,0 km/h (3 Bft) N 10 0 min 0 W/m 6,0 C 2,8 C 14,0 km/h (3 Bft)
23.11.2007 09:58 7,6 C 89 % 1008,5 hPa 0,0 l/m 12,3 km/h (2 Bft) N 10 0 min 0 W/m 5,9 C 3,6 C 12,3 km/h (2 Bft)
23.11.2007 10:03 7,6 C 89 % 1008,5 hPa 0,0 l/m 13,1 km/h (3 Bft) N 5 0 min 0 W/m 5,9 C 3,2 C 13,1 km/h (3 Bft)
23.11.2007 10:08 7,6 C 89 % 1008,5 hPa 0,0 l/m 10,6 km/h (2 Bft) N-NO 15 0 min 0 W/m 5,9 C 4,6 C 10,6 km/h (2 Bft)
23.11.2007 10:13 7,6 C 89 % 1009,5 hPa 0,0 l/m 12,0 km/h (2 Bft) N 360 0 min 0 W/m 5,9 C 3,8 C 12,0 km/h (2 Bft)
23.11.2007 10:18 7,6 C 89 % 1009,5 hPa 0,0 l/m 10,3 km/h (2 Bft) N 5 0 min 0 W/m 5,9 C 4,8 C 10,3 km/h (2 Bft)
23.11.2007 10:23 7,6 C 89 % 1009,5 hPa 0,0 l/m 9,4 km/h (2 Bft) N 360 0 min 0 W/m 5,9 C 5,3 C 9,4 km/h (2 Bft)
23.11.2007 10:28 7,7 C 89 % 1009,5 hPa 0,0 l/m 10,8 km/h (2 Bft) N 350 0 min 0 W/m 6,0 C 4,6 C 10,8 km/h (2 Bft)
23.11.2007 10:33 7,7 C 89 % 1009,5 hPa 0,0 l/m 8,4 km/h (2 Bft) N 360 0 min 0 W/m 6,0 C 6,1 C 8,4 km/h (2 Bft)
23.11.2007 10:38 7,8 C 88 % 1009,5 hPa 0,0 l/m 10,8 km/h (2 Bft) N 355 0 min 0 W/m 5,9 C 4,7 C 10,8 km/h (2 Bft)
23.11.2007 10:43 7,7 C 88 % 1009,5 hPa 0,0 l/m 11,0 km/h (2 Bft) N 355 0 min 0 W/m 5,8 C 4,4 C 11,0 km/h (2 Bft)
23.11.2007 10:48 7,8 C 88 % 1009,5 hPa 0,0 l/m 12,1 km/h (2 Bft) N 360 0 min 0 W/m 5,9 C 3,9 C 12,1 km/h (2 Bft)
23.11.2007 10:53 7,9 C 88 % 1009,5 hPa 0,0 l/m 12,8 km/h (3 Bft) N 5 0 min 0 W/m 6,0 C 3,7 C 12,8 km/h (3 Bft)
23.11.2007 10:58 8,0 C 88 % 1009,5 hPa 0,0 l/m 24,1 km/h (4 Bft) N 5 0 min 0 W/m 6,1 C -0,6 C 24,1 km/h (4 Bft)
23.11.2007 11:03 8,0 C 86 % 1009,5 hPa 0,0 l/m 19,7 km/h (3 Bft) N-NO 15 0 min 0 W/m 5,8 C 0,8 C 19,7 km/h (3 Bft)
23.11.2007 11:08 8,0 C 86 % 1009,5 hPa 0,0 l/m 22,0 km/h (4 Bft) N 10 0 min 0 W/m 5,8 C 0,0 C 22,0 km/h (4 Bft)
23.11.2007 11:13 8,0 C 86 % 1009,5 hPa 0,0 l/m 15,6 km/h (3 Bft) N-NO 15 0 min 0 W/m 5,8 C 2,4 C 15,6 km/h (3 Bft)
23.11.2007 11:18 8,0 C 86 % 1009,5 hPa 0,0 l/m 19,0 km/h (3 Bft) N-NO 15 0 min 0 W/m 5,8 C 1,1 C 19,0 km/h (3 Bft)
23.11.2007 11:23 8,0 C 85 % 1009,5 hPa 0,0 l/m 21,7 km/h (4 Bft) N-NO 30 0 min 0 W/m 5,6 C 0,1 C 21,7 km/h (4 Bft)
23.11.2007 11:28 8,0 C 85 % 1009,5 hPa 0,0 l/m 19,5 km/h (3 Bft) N 360 0 min 0 W/m 5,6 C 0,9 C 19,5 km/h (3 Bft)
23.11.2007 11:33 8,0 C 85 % 1009,5 hPa 0,0 l/m 16,2 km/h (3 Bft) N-NO 15 0 min 0 W/m 5,6 C 2,2 C 16,2 km/h (3 Bft)
23.11.2007 11:38 8,0 C 84 % 1009,5 hPa 0,0 l/m 15,4 km/h (3 Bft) N-NO 15 0 min 0 W/m 5,5 C 2,5 C 15,4 km/h (3 Bft)
23.11.2007 11:43 8,0 C 84 % 1010,5 hPa 0,0 l/m 14,5 km/h (3 Bft) N-NO 15 0 min 0 W/m 5,5 C 2,9 C 14,5 km/h (3 Bft)
23.11.2007 11:48 8,1 C 84 % 1010,5 hPa 0,0 l/m 14,7 km/h (3 Bft) N-NO 20 0 min 0 W/m 5,6 C 3,0 C 14,7 km/h (3 Bft)
23.11.2007 11:53 8,0 C 84 % 1010,5 hPa 0,0 l/m 15,6 km/h (3 Bft) N-NO 15 0 min 0 W/m 5,5 C 2,4 C 15,6 km/h (3 Bft)
23.11.2007 11:58 8,1 C 84 % 1010,5 hPa 0,0 l/m 13,3 km/h (3 Bft) N-NO 15 0 min 0 W/m 5,6 C 3,6 C 13,3 km/h (3 Bft)
23.11.2007 12:03 8,0 C 84 % 1010,5 hPa 0,0 l/m 13,5 km/h (3 Bft) N-NO 15 0 min 0 W/m 5,5 C 3,4 C 13,5 km/h (3 Bft)
23.11.2007 12:08 8,1 C 84 % 1010,5 hPa 0,0 l/m 13,5 km/h (3 Bft) N-NO 15 0 min 0 W/m 5,6 C 3,5 C 13,5 km/h (3 Bft)
23.11.2007 12:13 8,1 C 84 % 1010,5 hPa 0,0 l/m 16,8 km/h (3 Bft) N-NO 15 0 min 0 W/m 5,6 C 2,1 C 16,8 km/h (3 Bft)
23.11.2007 12:18 8,1 C 84 % 1010,5 hPa 0,0 l/m 16,9 km/h (3 Bft) N 5 0 min 0 W/m 5,6 C 2,0 C 16,9 km/h (3 Bft)
23.11.2007 12:23 8,0 C 84 % 1010,5 hPa 0,0 l/m 19,0 km/h (3 Bft) N 10 0 min 0 W/m 5,5 C 1,1 C 19,0 km/h (3 Bft)
23.11.2007 12:28 8,0 C 84 % 1010,5 hPa 0,0 l/m 16,6 km/h (3 Bft) N-NW 340 0 min 0 W/m 5,5 C 2,0 C 16,6 km/h (3 Bft)
23.11.2007 12:33 7,9 C 84 % 1010,5 hPa 0,0 l/m 15,7 km/h (3 Bft) N 355 0 min 0 W/m 5,4 C 2,3 C 15,7 km/h (3 Bft)
23.11.2007 12:37 7,9 C 81 % 1010,5 hPa 0,0 l/m 26,8 km/h (4 Bft) N 10 0 min 0 W/m 4,8 C -1,5 C 26,8 km/h (4 Bft)
23.11.2007 12:43 7,7 C 80 % 1010,5 hPa 0,0 l/m 30,1 km/h (5 Bft) N-NO 20 0 min 0 W/m 4,5 C -2,6 C 30,1 km/h (5 Bft)
23.11.2007 12:48 7,6 C 80 % 1010,5 hPa 0,0 l/m 33,4 km/h (5 Bft) N 5 0 min 0 W/m 4,4 C -3,5 C 33,4 km/h (5 Bft)
23.11.2007 12:53 7,6 C 79 % 1010,5 hPa 0,0 l/m 29,9 km/h (5 Bft) N 355 0 min 0 W/m 4,2 C -2,7 C 29,9 km/h (5 Bft)
23.11.2007 12:58 7,6 C 79 % 1010,5 hPa 0,0 l/m 28,2 km/h (5 Bft) N 360 0 min 0 W/m 4,2 C -2,3 C 28,2 km/h (5 Bft)
23.11.2007 13:03 7,5 C 79 % 1011,5 hPa 0,0 l/m 26,1 km/h (4 Bft) N-NO 15 0 min 0 W/m 4,1 C -1,9 C 26,1 km/h (4 Bft)
23.11.2007 13:08 7,5 C 79 % 1011,5 hPa 0,0 l/m 25,6 km/h (4 Bft) N 5 0 min 0 W/m 4,1 C -1,7 C 25,6 km/h (4 Bft)
23.11.2007 13:13 7,5 C 79 % 1011,5 hPa 0,0 l/m 21,6 km/h (4 Bft) N 5 0 min 0 W/m 4,1 C -0,5 C 21,6 km/h (4 Bft)
23.11.2007 13:18 7,6 C 79 % 1011,5 hPa 0,0 l/m 18,8 km/h (3 Bft) N-NW 345 0 min 0 W/m 4,2 C 0,6 C 18,8 km/h (3 Bft)
23.11.2007 13:23 7,6 C 79 % 1011,5 hPa 0,0 l/m 18,8 km/h (3 Bft) N 355 0 min 0 W/m 4,2 C 0,6 C 18,8 km/h (3 Bft)
23.11.2007 13:28 7,6 C 77 % 1011,5 hPa 0,0 l/m 18,8 km/h (3 Bft) N 5 0 min 0 W/m 3,8 C 0,6 C 18,8 km/h (3 Bft)
23.11.2007 13:33 7,7 C 76 % 1011,5 hPa 0,0 l/m 18,8 km/h (3 Bft) N-NO 15 0 min 0 W/m 3,7 C 0,8 C 18,8 km/h (3 Bft)
23.11.2007 13:38 7,7 C 78 % 1011,5 hPa 0,0 l/m 24,3 km/h (4 Bft) N 360 0 min 0 W/m 4,1 C -1,1 C 24,3 km/h (4 Bft)
23.11.2007 13:43 7,6 C 79 % 1011,5 hPa 0,0 l/m 26,7 km/h (4 Bft) N 350 0 min 0 W/m 4,2 C -1,9 C 26,7 km/h (4 Bft)
23.11.2007 13:48 7,4 C 79 % 1011,5 hPa 0,0 l/m 22,1 km/h (4 Bft) N 5 0 min 0 W/m 4,0 C -0,8 C 22,1 km/h (4 Bft)
23.11.2007 13:53 7,4 C 79 % 1011,5 hPa 0,0 l/m 17,8 km/h (3 Bft) N 350 0 min 0 W/m 4,0 C 0,8 C 17,8 km/h (3 Bft)
23.11.2007 13:58 7,4 C 78 % 1011,5 hPa 0,0 l/m 21,6 km/h (4 Bft) N 350 0 min 0 W/m 3,8 C -0,6 C 21,6 km/h (4 Bft)
23.11.2007 14:03 7,4 C 78 % 1011,5 hPa 0,0 l/m 12,9 km/h (3 Bft) N 355 0 min 0 W/m 3,8 C 3,0 C 12,9 km/h (3 Bft)
23.11.2007 14:08 7,4 C 77 % 1011,5 hPa 0,0 l/m 16,8 km/h (3 Bft) N 360 0 min 0 W/m 3,6 C 1,2 C 16,8 km/h (3 Bft)
23.11.2007 14:13 7,5 C 77 % 1011,5 hPa 0,0 l/m 13,0 km/h (3 Bft) N 5 0 min 0 W/m 3,7 C 3,1 C 13,0 km/h (3 Bft)
23.11.2007 14:18 7,4 C 76 % 1011,5 hPa 0,0 l/m 16,5 km/h (3 Bft) N 5 0 min 0 W/m 3,5 C 1,3 C 16,5 km/h (3 Bft)
23.11.2007 14:23 7,3 C 76 % 1011,5 hPa 0,0 l/m 20,3 km/h (4 Bft) N 5 0 min 0 W/m 3,4 C -0,3 C 20,3 km/h (4 Bft)
23.11.2007 14:28 7,2 C 76 % 1011,5 hPa 0,0 l/m 15,0 km/h (3 Bft) N 5 0 min 0 W/m 3,3 C 1,7 C 15,0 km/h (3 Bft)
23.11.2007 14:33 7,2 C 77 % 1011,5 hPa 0,0 l/m 11,5 km/h (2 Bft) N 5 0 min 0 W/m 3,4 C 3,6 C 11,5 km/h (2 Bft)
23.11.2007 14:38 7,2 C 77 % 1011,5 hPa 0,0 l/m 17,1 km/h (3 Bft) N 355 0 min 0 W/m 3,4 C 0,8 C 17,1 km/h (3 Bft)
23.11.2007 14:43 7,1 C 77 % 1011,5 hPa 0,0 l/m 17,2 km/h (3 Bft) N 360 0 min 0 W/m 3,3 C 0,6 C 17,2 km/h (3 Bft)
23.11.2007 14:48 7,1 C 77 % 1011,5 hPa 0,0 l/m 10,8 km/h (2 Bft) N-NW 345 0 min 0 W/m 3,3 C 3,9 C 10,8 km/h (2 Bft)
23.11.2007 14:53 7,0 C 77 % 1011,5 hPa 0,0 l/m 12,5 km/h (2 Bft) N-NW 330 0 min 0 W/m 3,2 C 2,8 C 12,5 km/h (2 Bft)
23.11.2007 14:58 7,0 C 77 % 1011,5 hPa 0,0 l/m 17,7 km/h (3 Bft) N-NW 330 0 min 0 W/m 3,2 C 0,3 C 17,7 km/h (3 Bft)
23.11.2007 15:03 6,9 C 77 % 1011,5 hPa 0,0 l/m 15,1 km/h (3 Bft) N 355 0 min 0 W/m 3,2 C 1,3 C 15,1 km/h (3 Bft)
23.11.2007 15:08 6,8 C 78 % 1011,5 hPa 0,0 l/m 16,4 km/h (3 Bft) N-NW 345 0 min 0 W/m 3,2 C 0,6 C 16,4 km/h (3 Bft)
23.11.2007 15:13 6,8 C 78 % 1011,5 hPa 0,0 l/m 13,1 km/h (3 Bft) NW 320 0 min 0 W/m 3,2 C 2,2 C 13,1 km/h (3 Bft)
23.11.2007 15:18 6,7 C 77 % 1012,5 hPa 0,0 l/m 14,1 km/h (3 Bft) NW 310 0 min 0 W/m 3,0 C 1,6 C 14,1 km/h (3 Bft)
23.11.2007 15:23 6,7 C 77 % 1012,5 hPa 0,0 l/m 18,5 km/h (3 Bft) NW 315 0 min 0 W/m 3,0 C -0,4 C 18,5 km/h (3 Bft)
23.11.2007 15:28 6,7 C 76 % 1012,5 hPa 0,0 l/m 16,5 km/h (3 Bft) NW 320 0 min 0 W/m 2,8 C 0,4 C 16,5 km/h (3 Bft)
23.11.2007 15:33 6,7 C 76 % 1012,5 hPa 0,0 l/m 17,8 km/h (3 Bft) NW 315 0 min 0 W/m 2,8 C -0,1 C 17,8 km/h (3 Bft)
23.11.2007 15:38 6,6 C 75 % 1012,5 hPa 0,0 l/m 18,5 km/h (3 Bft) NW 310 0 min 0 W/m 2,5 C -0,5 C 18,5 km/h (3 Bft)
23.11.2007 15:43 6,6 C 74 % 1012,5 hPa 0,0 l/m 21,8 km/h (4 Bft) NW 315 0 min 0 W/m 2,3 C -1,7 C 21,8 km/h (4 Bft)
23.11.2007 15:48 6,7 C 75 % 1012,5 hPa 0,0 l/m 15,7 km/h (3 Bft) W-NW 300 0 min 0 W/m 2,6 C 0,8 C 15,7 km/h (3 Bft)
23.11.2007 15:53 6,8 C 74 % 1012,5 hPa 0,0 l/m 12,6 km/h (3 Bft) NW 310 0 min 0 W/m 2,5 C 2,5 C 12,6 km/h (3 Bft)
23.11.2007 15:58 6,7 C 74 % 1012,5 hPa 0,0 l/m 15,6 km/h (3 Bft) W-NW 300 0 min 0 W/m 2,4 C 0,9 C 15,6 km/h (3 Bft)
23.11.2007 16:03 6,6 C 74 % 1012,5 hPa 0,0 l/m 14,5 km/h (3 Bft) NW 305 0 min 0 W/m 2,3 C 1,3 C 14,5 km/h (3 Bft)
23.11.2007 16:08 6,6 C 75 % 1012,5 hPa 0,0 l/m 14,0 km/h (3 Bft) NW 310 0 min 0 W/m 2,5 C 1,5 C 14,0 km/h (3 Bft)
23.11.2007 16:13 6,4 C 75 % 1012,5 hPa 0,0 l/m 14,0 km/h (3 Bft) W-NW 300 0 min 0 W/m 2,3 C 1,3 C 14,0 km/h (3 Bft)
23.11.2007 16:18 6,2 C 75 % 1012,5 hPa 0,0 l/m 12,7 km/h (3 Bft) NW 305 0 min 0 W/m 2,1 C 1,7 C 12,7 km/h (3 Bft)
23.11.2007 16:23 6,2 C 75 % 1012,5 hPa 0,0 l/m 14,2 km/h (3 Bft) W-NW 295 0 min 0 W/m 2,1 C 0,9 C 14,2 km/h (3 Bft)
23.11.2007 16:28 6,1 C 76 % 1012,5 hPa 0,0 l/m 14,3 km/h (3 Bft) W-NW 290 0 min 0 W/m 2,2 C 0,8 C 14,3 km/h (3 Bft)
23.11.2007 16:33 5,9 C 76 % 1012,5 hPa 0,0 l/m 10,0 km/h (2 Bft) W-NW 300 0 min 0 W/m 2,0 C 3,1 C 10,0 km/h (2 Bft)
23.11.2007 16:38 5,9 C 76 % 1012,5 hPa 0,0 l/m 13,0 km/h (3 Bft) W-NW 295 0 min 0 W/m 2,0 C 1,2 C 13,0 km/h (3 Bft)
23.11.2007 16:43 5,7 C 75 % 1012,5 hPa 0,0 l/m 13,5 km/h (3 Bft) NW 305 0 min 0 W/m 1,6 C 0,7 C 13,5 km/h (3 Bft)
23.11.2007 16:48 5,8 C 75 % 1012,5 hPa 0,0 l/m 16,1 km/h (3 Bft) W-NW 295 0 min 0 W/m 1,7 C -0,5 C 16,1 km/h (3 Bft)
23.11.2007 16:53 5,8 C 75 % 1012,5 hPa 0,0 l/m 16,5 km/h (3 Bft) W-NW 290 0 min 0 W/m 1,7 C -0,7 C 16,5 km/h (3 Bft)
23.11.2007 16:58 5,8 C 76 % 1012,5 hPa 0,0 l/m 14,0 km/h (3 Bft) W-NW 285 0 min 0 W/m 1,9 C 0,6 C 14,0 km/h (3 Bft)
23.11.2007 17:03 6,0 C 77 % 1012,5 hPa 0,0 l/m 19,1 km/h (3 Bft) NW 305 0 min 0 W/m 2,3 C -1,5 C 19,1 km/h (3 Bft)
23.11.2007 17:08 6,0 C 77 % 1012,5 hPa 0,0 l/m 14,7 km/h (3 Bft) W-NW 295 0 min 0 W/m 2,3 C 0,4 C 14,7 km/h (3 Bft)
23.11.2007 17:13 6,0 C 77 % 1012,5 hPa 0,0 l/m 21,7 km/h (4 Bft) NW 305 0 min 0 W/m 2,3 C -2,5 C 21,7 km/h (4 Bft)
23.11.2007 17:18 5,9 C 75 % 1012,5 hPa 0,0 l/m 25,5 km/h (4 Bft) NW 305 0 min 0 W/m 1,8 C -3,9 C 25,5 km/h (4 Bft)
23.11.2007 17:23 6,0 C 76 % 1012,5 hPa 0,0 l/m 26,0 km/h (4 Bft) W-NW 300 0 min 0 W/m 2,1 C -3,9 C 26,0 km/h (4 Bft)
23.11.2007 17:28 5,9 C 76 % 1012,5 hPa 0,0 l/m 25,0 km/h (4 Bft) NW 305 0 min 0 W/m 2,0 C -3,7 C 25,0 km/h (4 Bft)
23.11.2007 17:33 5,8 C 77 % 1012,5 hPa 0,0 l/m 19,3 km/h (3 Bft) W-NW 295 0 min 0 W/m 2,1 C -1,9 C 19,3 km/h (3 Bft)
23.11.2007 17:38 5,8 C 77 % 1012,5 hPa 0,0 l/m 14,3 km/h (3 Bft) W-NW 285 0 min 0 W/m 2,1 C 0,4 C 14,3 km/h (3 Bft)
23.11.2007 17:42 5,8 C 78 % 1012,5 hPa 0,0 l/m 18,6 km/h (3 Bft) W-NW 285 0 min 0 W/m 2,3 C -1,6 C 18,6 km/h (3 Bft)
23.11.2007 17:48 5,8 C 79 % 1012,5 hPa 0,0 l/m 18,8 km/h (3 Bft) W-NW 295 0 min 0 W/m 2,4 C -1,7 C 18,8 km/h (3 Bft)
23.11.2007 17:53 5,8 C 80 % 1012,5 hPa 0,0 l/m 20,3 km/h (4 Bft) W-NW 285 0 min 0 W/m 2,6 C -2,3 C 20,3 km/h (4 Bft)
23.11.2007 17:58 5,8 C 80 % 1012,5 hPa 0,0 l/m 18,2 km/h (3 Bft) W-NW 290 0 min 0 W/m 2,6 C -1,4 C 18,2 km/h (3 Bft)
23.11.2007 18:03 5,8 C 80 % 1012,5 hPa 0,0 l/m 22,4 km/h (4 Bft) W-NW 295 0 min 0 W/m 2,6 C -3,0 C 22,4 km/h (4 Bft)
23.11.2007 18:08 6,0 C 80 % 1012,5 hPa 0,0 l/m 19,0 km/h (3 Bft) W 275 0 min 0 W/m 2,8 C -1,5 C 19,0 km/h (3 Bft)
23.11.2007 18:13 6,1 C 81 % 1012,5 hPa 0,0 l/m 25,8 km/h (4 Bft) W-NW 295 0 min 0 W/m 3,1 C -3,7 C 25,8 km/h (4 Bft)
23.11.2007 18:18 6,2 C 81 % 1012,5 hPa 0,0 l/m 21,2 km/h (4 Bft) W-NW 290 0 min 0 W/m 3,2 C -2,1 C 21,2 km/h (4 Bft)
23.11.2007 18:23 6,2 C 80 % 1012,5 hPa 0,0 l/m 21,8 km/h (4 Bft) W-NW 290 0 min 0 W/m 3,0 C -2,3 C 21,8 km/h (4 Bft)
23.11.2007 18:28 6,2 C 80 % 1013,5 hPa 0,0 l/m 24,7 km/h (4 Bft) W-NW 295 0 min 0 W/m 3,0 C -3,2 C 24,7 km/h (4 Bft)
23.11.2007 18:33 6,2 C 81 % 1013,5 hPa 0,0 l/m 22,0 km/h (4 Bft) W-NW 285 0 min 0 W/m 3,2 C -2,3 C 22,0 km/h (4 Bft)
23.11.2007 18:38 6,2 C 81 % 1013,5 hPa 0,0 l/m 22,1 km/h (4 Bft) W 275 0 min 0 W/m 3,2 C -2,4 C 22,1 km/h (4 Bft)
23.11.2007 18:43 6,1 C 82 % 1012,5 hPa 0,0 l/m 19,8 km/h (3 Bft) W 270 0 min 0 W/m 3,3 C -1,7 C 19,8 km/h (3 Bft)
23.11.2007 18:48 6,1 C 83 % 1013,5 hPa 0,0 l/m 20,8 km/h (4 Bft) W 275 0 min 0 W/m 3,4 C -2,0 C 20,8 km/h (4 Bft)
23.11.2007 18:53 6,1 C 83 % 1013,5 hPa 0,0 l/m 20,8 km/h (4 Bft) W 275 0 min 0 W/m 3,4 C -2,0 C 20,8 km/h (4 Bft)
23.11.2007 18:58 6,3 C 84 % 1013,5 hPa 0,3 l/m 24,5 km/h (4 Bft) NW 305 0 min 0 W/m 3,8 C -3,0 C 24,5 km/h (4 Bft)
23.11.2007 19:03 6,3 C 85 % 1013,5 hPa 0,0 l/m 26,0 km/h (4 Bft) NW 320 0 min 0 W/m 4,0 C -3,5 C 26,0 km/h (4 Bft)
23.11.2007 19:08 6,2 C 85 % 1013,5 hPa 0,6 l/m 12,2 km/h (2 Bft) W-NW 295 0 min 0 W/m 3,9 C 2,0 C 12,2 km/h (2 Bft)
23.11.2007 19:13 6,1 C 86 % 1013,5 hPa 0,0 l/m 18,9 km/h (3 Bft) N 5 0 min 0 W/m 3,9 C -1,3 C 18,9 km/h (3 Bft)
23.11.2007 19:18 6,1 C 87 % 1013,5 hPa 0,0 l/m 15,7 km/h (3 Bft) NW 315 0 min 0 W/m 4,1 C 0,1 C 15,7 km/h (3 Bft)
23.11.2007 19:23 6,1 C 88 % 1013,5 hPa 0,0 l/m 15,6 km/h (3 Bft) N-NW 345 0 min 0 W/m 4,3 C 0,1 C 15,6 km/h (3 Bft)
23.11.2007 19:28 6,2 C 89 % 1013,5 hPa 0,0 l/m 32,9 km/h (5 Bft) N-NO 30 0 min 0 W/m 4,5 C -5,4 C 32,9 km/h (5 Bft)
23.11.2007 19:33 6,0 C 88 % 1013,5 hPa 0,0 l/m 31,8 km/h (5 Bft) N-NO 15 0 min 0 W/m 4,2 C -5,4 C 31,8 km/h (5 Bft)
23.11.2007 19:38 6,0 C 89 % 1013,5 hPa 0,0 l/m 32,2 km/h (5 Bft) N 10 0 min 0 W/m 4,3 C -5,5 C 32,2 km/h (5 Bft)
23.11.2007 19:43 6,0 C 89 % 1013,5 hPa 0,0 l/m 33,4 km/h (5 Bft) N 10 0 min 0 W/m 4,3 C -5,8 C 33,4 km/h (5 Bft)
23.11.2007 19:48 6,0 C 89 % 1013,5 hPa 0,0 l/m 21,3 km/h (4 Bft) N 355 0 min 0 W/m 4,3 C -2,4 C 21,3 km/h (4 Bft)
23.11.2007 19:53 6,0 C 89 % 1013,5 hPa 0,0 l/m 31,0 km/h (5 Bft) N 10 0 min 0 W/m 4,3 C -5,2 C 31,0 km/h (5 Bft)
23.11.2007 19:58 6,0 C 89 % 1014,5 hPa 0,0 l/m 33,5 km/h (5 Bft) N-NO 25 0 min 0 W/m 4,3 C -5,8 C 33,5 km/h (5 Bft)
23.11.2007 20:03 6,1 C 89 % 1014,5 hPa 0,0 l/m 24,4 km/h (4 Bft) N 10 0 min 0 W/m 4,4 C -3,3 C 24,4 km/h (4 Bft)
23.11.2007 20:08 6,0 C 88 % 1014,5 hPa 0,0 l/m 28,2 km/h (5 Bft) N-NO 15 0 min 0 W/m 4,2 C -4,5 C 28,2 km/h (5 Bft)
23.11.2007 20:13 6,0 C 88 % 1014,5 hPa 0,0 l/m 33,5 km/h (5 Bft) N 10 0 min 0 W/m 4,2 C -5,8 C 33,5 km/h (5 Bft)
23.11.2007 20:18 5,9 C 88 % 1014,5 hPa 0,0 l/m 31,1 km/h (5 Bft) N-NO 15 0 min 0 W/m 4,1 C -5,4 C 31,1 km/h (5 Bft)
23.11.2007 20:22 5,8 C 86 % 1014,5 hPa 0,0 l/m 31,6 km/h (5 Bft) N 10 0 min 0 W/m 3,6 C -5,6 C 31,6 km/h (5 Bft)
23.11.2007 20:28 5,8 C 86 % 1014,5 hPa 0,0 l/m 33,4 km/h (5 Bft) N-NO 15 0 min 0 W/m 3,6 C -6,0 C 33,4 km/h (5 Bft)
23.11.2007 20:33 5,7 C 85 % 1014,5 hPa 0,0 l/m 36,8 km/h (5 Bft) N-NO 15 0 min 0 W/m 3,4 C -6,9 C 36,8 km/h (5 Bft)
23.11.2007 20:38 5,7 C 85 % 1014,5 hPa 0,0 l/m 30,1 km/h (5 Bft) N 5 0 min 0 W/m 3,4 C -5,4 C 30,1 km/h (5 Bft)
23.11.2007 20:43 5,6 C 85 % 1015,5 hPa 0,0 l/m 37,4 km/h (5 Bft) N-NO 15 0 min 0 W/m 3,3 C -7,2 C 37,4 km/h (5 Bft)
23.11.2007 20:48 5,6 C 85 % 1015,5 hPa 0,0 l/m 33,9 km/h (5 Bft) N 360 0 min 0 W/m 3,3 C -6,4 C 33,9 km/h (5 Bft)
23.11.2007 20:53 5,6 C 85 % 1015,5 hPa 0,0 l/m 31,0 km/h (5 Bft) N-NO 20 0 min 0 W/m 3,3 C -5,8 C 31,0 km/h (5 Bft)
23.11.2007 20:58 5,5 C 85 % 1015,5 hPa 0,0 l/m 33,9 km/h (5 Bft) N-NO 15 0 min 0 W/m 3,2 C -6,6 C 33,9 km/h (5 Bft)
23.11.2007 21:03 5,5 C 86 % 1015,5 hPa 0,0 l/m 34,0 km/h (5 Bft) N 10 0 min 0 W/m 3,3 C -6,6 C 34,0 km/h (5 Bft)
23.11.2007 21:08 5,4 C 86 % 1015,5 hPa 0,0 l/m 33,2 km/h (5 Bft) NO 35 0 min 0 W/m 3,3 C -6,6 C 33,2 km/h (5 Bft)
23.11.2007 21:13 5,3 C 85 % 1015,5 hPa 0,0 l/m 38,6 km/h (6 Bft) N-NO 20 0 min 0 W/m 3,0 C -7,8 C 38,6 km/h (6 Bft)
23.11.2007 21:18 5,3 C 85 % 1016,5 hPa 0,0 l/m 35,1 km/h (5 Bft) N-NO 25 0 min 0 W/m 3,0 C -7,1 C 35,1 km/h (5 Bft)
23.11.2007 21:23 5,2 C 85 % 1016,5 hPa 0,0 l/m 27,5 km/h (5 Bft) NO 40 0 min 0 W/m 2,9 C -5,4 C 27,5 km/h (5 Bft)
23.11.2007 21:28 5,1 C 85 % 1016,5 hPa 0,0 l/m 35,2 km/h (5 Bft) N-NO 15 0 min 0 W/m 2,8 C -7,4 C 35,2 km/h (5 Bft)
23.11.2007 21:33 4,9 C 85 % 1016,5 hPa 0,0 l/m 38,3 km/h (6 Bft) N-NO 30 0 min 0 W/m 2,6 C -8,4 C 38,3 km/h (6 Bft)
23.11.2007 21:38 4,8 C 85 % 1016,5 hPa 0,0 l/m 41,7 km/h (6 Bft) N-NO 15 0 min 0 W/m 2,5 C -9,1 C 41,7 km/h (6 Bft)
23.11.2007 21:43 4,8 C 86 % 1016,5 hPa 0,0 l/m 30,2 km/h (5 Bft) N-NO 20 0 min 0 W/m 2,7 C -6,7 C 30,2 km/h (5 Bft)
23.11.2007 21:48 4,8 C 85 % 1016,5 hPa 0,0 l/m 29,4 km/h (5 Bft) N-NO 30 0 min 0 W/m 2,5 C -6,5 C 29,4 km/h (5 Bft)
23.11.2007 21:53 4,8 C 86 % 1016,5 hPa 0,0 l/m 29,4 km/h (5 Bft) N-NO 30 0 min 0 W/m 2,7 C -6,5 C 29,4 km/h (5 Bft)
23.11.2007 21:58 4,7 C 85 % 1016,5 hPa 0,0 l/m 31,6 km/h (5 Bft) N-NO 25 0 min 0 W/m 2,4 C -7,2 C 31,6 km/h (5 Bft)
23.11.2007 21:59 4,7 C 85 % 1016,5 hPa 0,0 l/m 31,6 km/h (5 Bft) N-NO 25 0 min 0 W/m 2,4 C -7,2 C 31,6 km/h (5 Bft)
23.11.2007 22:04 4,7 C 84 % 1016,5 hPa 0,0 l/m 31,6 km/h (5 Bft) N-NO 15 0 min 0 W/m 2,2 C -7,2 C 31,6 km/h (5 Bft)
23.11.2007 22:09 4,6 C 84 % 1016,5 hPa 0,0 l/m 28,5 km/h (5 Bft) NO 35 0 min 0 W/m 2,1 C -6,5 C 28,5 km/h (5 Bft)
23.11.2007 22:14 4,6 C 84 % 1016,5 hPa 0,0 l/m 29,6 km/h (5 Bft) N-NO 25 0 min 0 W/m 2,1 C -6,8 C 29,6 km/h (5 Bft)
23.11.2007 22:19 4,5 C 84 % 1017,5 hPa 0,0 l/m 22,5 km/h (4 Bft) NO 35 0 min 0 W/m 2,0 C -4,8 C 22,5 km/h (4 Bft)
23.11.2007 22:24 4,4 C 84 % 1017,5 hPa 0,0 l/m 30,7 km/h (5 Bft) N-NO 25 0 min 0 W/m 1,9 C -7,4 C 30,7 km/h (5 Bft)
23.11.2007 22:29 4,4 C 84 % 1017,5 hPa 0,0 l/m 25,9 km/h (4 Bft) NO 35 0 min 0 W/m 1,9 C -6,0 C 25,9 km/h (4 Bft)
23.11.2007 22:34 4,3 C 83 % 1017,5 hPa 0,0 l/m 27,8 km/h (5 Bft) N-NO 30 0 min 0 W/m 1,7 C -6,8 C 27,8 km/h (5 Bft)
23.11.2007 22:39 4,3 C 84 % 1017,5 hPa 0,0 l/m 24,2 km/h (4 Bft) N-NO 15 0 min 0 W/m 1,8 C -5,6 C 24,2 km/h (4 Bft)
23.11.2007 22:44 4,3 C 83 % 1017,5 hPa 0,0 l/m 31,1 km/h (5 Bft) N-NO 30 0 min 0 W/m 1,7 C -7,6 C 31,1 km/h (5 Bft)
23.11.2007 22:49 4,3 C 83 % 1017,5 hPa 0,0 l/m 27,0 km/h (5 Bft) N-NO 30 0 min 0 W/m 1,7 C -6,5 C 27,0 km/h (5 Bft)
23.11.2007 22:54 4,3 C 82 % 1018,5 hPa 0,0 l/m 31,1 km/h (5 Bft) N-NO 25 0 min 0 W/m 1,5 C -7,6 C 31,1 km/h (5 Bft)
23.11.2007 22:59 4,3 C 81 % 1018,5 hPa 0,0 l/m 30,3 km/h (5 Bft) N-NO 30 0 min 0 W/m 1,3 C -7,4 C 30,3 km/h (5 Bft)
23.11.2007 23:04 4,3 C 80 % 1018,5 hPa 0,0 l/m 32,1 km/h (5 Bft) N-NO 15 0 min 0 W/m 1,2 C -7,9 C 32,1 km/h (5 Bft)
23.11.2007 23:09 4,3 C 79 % 1018,5 hPa 0,0 l/m 32,2 km/h (5 Bft) N-NO 20 0 min 0 W/m 1,0 C -7,9 C 32,2 km/h (5 Bft)
23.11.2007 23:14 4,3 C 79 % 1018,5 hPa 0,0 l/m 21,6 km/h (4 Bft) N-NO 25 0 min 0 W/m 1,0 C -4,7 C 21,6 km/h (4 Bft)
23.11.2007 23:19 4,2 C 79 % 1018,5 hPa 0,0 l/m 37,3 km/h (5 Bft) N-NO 30 0 min 0 W/m 0,9 C -9,2 C 37,3 km/h (5 Bft)
23.11.2007 23:24 4,2 C 78 % 1018,5 hPa 0,0 l/m 26,1 km/h (4 Bft) NO 40 0 min 0 W/m 0,7 C -6,4 C 26,1 km/h (4 Bft)
23.11.2007 23:29 4,1 C 77 % 1018,5 hPa 0,0 l/m 30,0 km/h (5 Bft) N-NO 20 0 min 0 W/m 0,4 C -7,6 C 30,0 km/h (5 Bft)
23.11.2007 23:34 4,1 C 77 % 1018,5 hPa 0,0 l/m 25,8 km/h (4 Bft) NO 35 0 min 0 W/m 0,4 C -6,4 C 25,8 km/h (4 Bft)
23.11.2007 23:39 4,1 C 77 % 1018,5 hPa 0,0 l/m 25,7 km/h (4 Bft) N-NO 30 0 min 0 W/m 0,4 C -6,4 C 25,7 km/h (4 Bft)
23.11.2007 23:44 4,1 C 77 % 1018,5 hPa 0,0 l/m 26,6 km/h (4 Bft) N-NO 25 0 min 0 W/m 0,4 C -6,7 C 26,6 km/h (4 Bft)
23.11.2007 23:49 4,0 C 74 % 1018,5 hPa 0,0 l/m 34,5 km/h (5 Bft) N-NO 20 0 min 0 W/m -0,2 C -8,9 C 34,5 km/h (5 Bft)
23.11.2007 23:54 4,1 C 74 % 1019,5 hPa 0,0 l/m 26,6 km/h (4 Bft) NO 35 0 min 0 W/m -0,1 C -6,7 C 26,6 km/h (4 Bft)
23.11.2007 23:59 4,1 C 74 % 1019,5 hPa 0,0 l/m 30,5 km/h (5 Bft) N-NO 15 0 min 0 W/m -0,1 C -7,8 C 30,5 km/h (5 Bft)
_ Min-Zeit 23:49 15:43 00:03 - 08:03 - - - - 23:49 23:19 08:03
Minimum _ 4,0 C 74 % 1003,5 hPa - 7,6 km/h (2 Bft) - - - - -0,2 C -9,2 C 7,6 km/h (2 Bft)
_ Max-Zeit 00:58 00:03 23:54 19:08 21:38 - - 00:03 00:03 00:58 08:03 21:38
Maximum _ 8,5 C 96 % 1019,5 hPa 0,6 l/m 41,7 km/h
N-NO (6 Bft)
- - 0 min 0 W/m 7,6 C 6,4 C 41,7 km/h
N-NO (6 Bft)
Durchschnitt _ 6,9 C 87 % 1009,7 hPa #0,9 l/m 21,7 km/h (4 Bft) W-SW - #0 min. 0 W/m 4,8 C -1,0 C 21,7 km/h (4 Bft)
copyright by Holger Just